Temp
-6 -6 -6 -6 -7 -7 -7 -7 -7 -7 -7 -7 -7 -7 -7 -7 -8 -8 -8 -8 -8 -8 -8 -8 -8 -8 -8 -7 -7 -7 -7 -7 -7 -7 -7 -7 -7 -7 -7 -7 -7 -7 -7 -7 -7 -7 -7 -7 -7 -8 -8 -7 -7 -7 -7 -7 -7 -6 -6 -6 -6 -6 -6 -6 -6 -6 -6 -5 -5 -5 -5 -5 -5 -6
-6 -6 -6 -6 -6 -6 -7 -7 -7 -7 -7 -7 -7 -7 -7 -7 -7 -7 -7 -7 -7 -8 -7 -7 -7 -7 -7 -7 -7 -7 -7 -7 -7 -7 -7 -7 -7 -7 -7 -7 -7 -7 -7 -7 -7 -7 -8 -8 -8 -8 -8 -7 -7 -7 -7 -7 -7 -6 -6 -6 -6 -6 -6 -6 -6 -6 -6 -5 -5 -5 -5 -5 -5 -5
-6 -6 -6 -6 -6 -6 -6 -7 -7 -6 -7 -7 -7 -7 -7 -7 -7 -7 -7 -7 -7 -7 -7 -7 -7 -7 -7 -7 -7 -7 -7 -7 -7 -7 -7 -7 -7 -7 -7 -7 -7 -7 -7 -7 -7 -7 -8 -8 -8 -8 -8 -7 -7 -7 -7 -7 -7 -6 -6 -6 -6 -6 -6 -6 -6 -6 -6 -5 -5 -5 -5 -5 -5 -5
-6 -6 -6 -6 -6 -6 -6 -6 -6 -6 -6 -7 -7 -7 -7 -7 -7 -7 -7 -7 -7 -7 -7 -7 -7 -7 -7 -7 -7 -7 -7 -7 -7 -7 -7 -7 -7 -7 -7 -7 -7 -7 -7 -7 -7 -7 -7 -7 -7 -7 -7 -7 -7 -7 -7 -7 -7 -6 -6 -6 -6 -6 -6 -6 -6 -6 -6 -6 -5 -5 -5 -5 -5 -5
-6 -6 -6 -6 -6 -6 -6 -6 -6 -6 -6 -7 -7 -7 -7 -7 -7 -7 -7 -7 -7 -7 -7 -7 -7 -7 -7 -7 -7 -7 -7 -6 -6 -6 -6 -7 -7 -7 -7 -7 -7 -7 -7 -7 -7 -7 -7 -7 -7 -7 -7 -7 -7 -7 -7 -7 -7 -6 -6 -6 -6 -6 -6 -6 -6 -6 -5 -5 -5 -5 -5 -5 -5 -5
-6 -6 -6 -6 -6 -6 -6 -6 -6 -6 -7 -7 -7 -7 -7 -7 -7 -7 -7 -7 -7 -7 -7 -7 -7 -7 -6 -7 -7 -6 -6 -6 -6 -6 -6 -6 -6 -6 -6 -6 -7 -7 -7 -7 -7 -7 -7 -7 -7 -7 -7 -7 -7 -7 -7 -7 -7 -7 -6 -6 -6 -6 -6 -6 -6 -5 -5 -5 -5 -5 -5 -5 -5 -5
-6 -6 -6 -6 -6 -6 -6 -6 -6 -6 -6 -7 -6 -6 -6 -7 -7 -7 -7 -7 -7 -7 -6 -6 -6 -6 -6 -6 -6 -6 -6 -6 -6 -6 -6 -6 -6 -6 -6 -6 -6 -7 -7 -7 -7 -7 -7 -6 -6 -6 -6 -6 -6 -6 -7 -7 -7 -7 -6 -6 -6 -6 -6 -6 -6 -5 -5 -5 -5 -5 -5 -5 -5 -5
-6 -6 -6 -6 -6 -6 -6 -6 -6 -6 -6 -6 -6 -6 -6 -6 -7 -7 -6 -6 -6 -6 -6 -6 -6 -6 -6 -6 -6 -6 -6 -6 -6 -6 -6 -6 -6 -6 -6 -6 -6 -6 -6 -6 -6 -6 -6 -6 -6 -6 -6 -6 -6 -6 -6 -6 -6 -6 -6 -6 -6 -6 -6 -6 -6 -5 -5 -5 -5 -5 -5 -5 -5 -5
-6 -6 -6 -6 -6 -6 -6 -6 -7 -7 -6 -6 -6 -6 -6 -6 -6 -6 -6 -6 -6 -6 -6 -6 -6 -6 -6 -6 -6 -6 -6 -6 -6 -6 -6 -6 -5 -5 -5 -6 -6 -6 -6 -6 -6 -6 -6 -6 -6 -6 -6 -6 -6 -6 -6 -6 -6 -6 -6 -6 -6 -6 -6 -5 -5 -5 -5 -5 -5 -5 -5 -5 -5 -5
-6 -6 -6 -6 -6 -6 -6 -6 -6 -6 -6 -6 -6 -6 -6 -6 -6 -6 -6 -6 -6 -6 -6 -6 -6 -6 -6 -6 -6 -6 -6 -6 -6 -6 -6 -6 -5 -5 -5 -5 -5 -5 -5 -6 -6 -6 -6 -6 -6 -6 -6 -6 -6 -6 -6 -6 -6 -6 -6 -6 -6 -6 -5 -5 -5 -5 -5 -5 -5 -5 -5 -5 -5 -5
-6 -6 -6 -6 -6 -6 -6 -6 -6 -6 -6 -6 -6 -6 -6 -6 -6 -6 -6 -6 -6 -6 -6 -6 -6 -6 -6 -6 -6 -6 -6 -6 -6 -6 -6 -5 -5 -5 -5 -5 -5 -5 -5 -5 -6 -6 -6 -6 -6 -6 -6 -6 -6 -6 -6 -6 -6 -6 -6 -5 -5 -5 -5 -5 -5 -5 -5 -5 -5 -5 -5 -5 -5 -5
-6 -6 -6 -6 -6 -6 -6 -6 -6 -6 -6 -6 -6 -6 -6 -6 -6 -6 -6 -6 -6 -6 -6 -6 -6 -6 -6 -6 -6 -6 -6 -6 -6 -6 -6 -6 -5 -5 -5 -6 -6 -5 -5 -5 -5 -5 -5 -5 -5 -5 -5 -5 -5 -6 -5 -5 -6 -6 -5 -5 -5 -5 -5 -5 -5 -5 -5 -5 -5 -5 -5 -5 -5 -5
-7 -7 -6 -6 -6 -6 -6 -6 -6 -6 -6 -6 -6 -6 -6 -6 -6 -6 -6 -6 -6 -6 -6 -6 -6 -6 -6 -6 -6 -6 -6 -6 -6 -6 -6 -6 -6 -5 -5 -6 -6 -6 -5 -5 -5 -5 -5 -5 -5 -5 -5 -5 -5 -5 -5 -5 -5 -5 -5 -5 -5 -5 -5 -5 -5 -5 -5 -5 -5 -5 -5 -5 -5 -5
-7 -7 -7 -6 -6 -6 -6 -6 -7 -6 -6 -6 -6 -6 -6 -6 -6 -6 -6 -6 -6 -6 -6 -6 -6 -6 -5 -6 -6 -6 -6 -6 -6 -6 -6 -6 -6 -6 -5 -5 -6 -6 -6 -5 -5 -5 -5 -5 -5 -5 -5 -5 -5 -5 -5 -5 -5 -5 -5 -5 -5 -5 -5 -5 -5 -5 -5 -5 -5 -5 -5 -5 -5 -5
-7 -7 -7 -7 -7 -7 -6 -7 -7 -7 -6 -6 -6 -6 -6 -6 -6 -6 -6 -6 -6 -6 -6 -6 -6 -6 -5 -6 -6 -6 -6 -6 -6 -6 -6 -6 -6 -6 -6 -6 -6 -6 -6 -5 -5 -5 -5 -5 -5 -5 -5 -5 -5 -5 -5 -5 -5 -5 -5 -5 -5 -5 -5 -5 -5 -5 -5 -5 -5 -5 -5 -5 -5 -5
-7 -7 -7 -7 -7 -7 -7 -7 -7 -6 -6 -6 -6 -6 -7 -7 -6 -6 -6 -6 -6 -6 -6 -6 -6 -6 -6 -6 -6 -6 -6 -6 -6 -6 -6 -6 -6 -6 -6 -6 -6 -6 -6 -6 -6 -5 -5 -5 -5 -5 -5 -5 -5 -6 -6 -6 -5 -5 -5 -5 -5 -5 -5 -5 -5 -5 -5 -5 -5 -5 -5 -5 -5 -5
-7 -7 -7 -7 -7 -7 -7 -7 -7 -6 -6 -6 -6 -7 -7 -7 -7 -6 -6 -6 -6 -6 -6 -6 -6 -6 -6 -6 -6 -6 -6 -6 -6 -6 -6 -6 -6 -6 -6 -6 -6 -6 -6 -6 -6 -6 -5 -5 -5 -5 -5 -5 -5 -5 -6 -6 -6 -6 -6 -6 -6 -5 -5 -5 -5 -5 -5 -5 -5 -5 -5 -5 -5 -5
-7 -7 -7 -7 -7 -7 -7 -7 -7 -7 -7 -6 -6 -7 -7 -7 -7 -7 -7 -7 -7 -6 -6 -6 -6 -6 -6 -6 -6 -6 -6 -6 -6 -6 -6 -6 -6 -6 -6 -6 -6 -6 -6 -6 -6 -6 -6 -6 -5 -5 -5 -5 -5 -5 -5 -6 -6 -6 -6 -6 -6 -6 -6 -6 -5 -5 -5 -5 -5 -5 -5 -5 -5 -5
-7 -7 -7 -7 -7 -7 -7 -7 -7 -7 -7 -7 -7 -7 -7 -7 -7 -7 -7 -7 -7 -7 -7 -7 -6 -6 -6 -6 -6 -6 -6 -7 -7 -7 -6 -7 -6 -6 -6 -6 -6 -6 -6 -6 -6 -6 -6 -6 -6 -6 -5 -5 -5 -5 -5 -5 -6 -5 -5 -5 -5 -5 -6 -6 -5 -5 -5 -5 -5 -5 -5 -5 -5 -5
-7 -7 -6 -7 -7 -7 -7 -7 -7 -7 -7 -7 -7 -7 -7 -7 -7 -7 -7 -7 -7 -7 -7 -7 -6 -6 -6 -6 -6 -6 -7 -7 -7 -6 -6 -6 -6 -6 -6 -6 -6 -6 -6 -6 -6 -6 -6 -6 -6 -6 -6 -6 -5 -5 -5 -5 -5 -5 -5 -5 -5 -5 -5 -5 -5 -5 -5 -5 -5 -5 -5 -5 -5 -5
-7 -7 -7 -7 -7 -7 -7 -7 -7 -7 -7 -7 -7 -7 -7 -7 -7 -7 -7 -7 -7 -7 -7 -7 -7 -7 -7 -6 -6 -7 -7 -7 -7 -6 -6 -6 -7 -6 -6 -6 -6 -6 -6 -6 -6 -6 -6 -6 -6 -6 -6 -6 -6 -6 -5 -5 -5 -5 -5 -5 -5 -5 -5 -5 -5 -5 -5 -5 -5 -5 -5 -5 -5 -5
-7 -7 -7 -7 -7 -7 -7 -7 -7 -7 -7 -7 -7 -7 -7 -7 -7 -7 -7 -7 -7 -7 -7 -7 -7 -7 -7 -7 -7 -7 -7 -7 -7 -7 -7 -7 -7 -7 -7 -6 -6 -6 -6 -6 -6 -6 -6 -6 -6 -6 -6 -6 -6 -6 -6 -6 -6 -6 -5 -5 -5 -6 -6 -5 -5 -5 -5 -5 -6 -6 -6 -5 -5 -5
-7 -7 -7 -7 -7 -7 -7 -7 -7 -7 -7 -7 -7 -7 -7 -7 -7 -7 -7 -7 -7 -7 -7 -7 -7 -7 -7 -7 -7 -7 -7 -7 -7 -7 -7 -7 -7 -7 -7 -7 -7 -6 -6 -6 -7 -7 -7 -7 -7 -7 -7 -6 -6 -6 -6 -6 -6 -6 -5 -5 -5 -6 -6 -5 -5 -5 -6 -6 -6 -6 -6 -6 -6 -6
-7 -7 -7 -7 -7 -7 -7 -7 -7 -7 -7 -7 -7 -7 -7 -7 -7 -7 -7 -7 -7 -7 -7 -7 -7 -7 -7 -7 -7 -7 -7 -7 -7 -7 -7 -7 -7 -7 -7 -7 -7 -7 -7 -7 -7 -7 -7 -7 -7 -7 -7 -7 -7 -6 -6 -6 -6 -5 -5 -5 -5 -5 -6 -6 -6 -6 -6 -6 -6 -6 -6 -6 -6 -6
-7 -7 -7 -7 -7 -7 -7 -7 -7 -7 -7 -7 -7 -7 -7 -8 -8 -8 -7 -7 -8 -8 -7 -7 -7 -7 -7 -7 -7 -7 -7 -7 -7 -7 -7 -8 -8 -8 -8 -7 -7 -7 -7 -7 -7 -7 -7 -7 -7 -7 -7 -7 -7 -7 -7 -6 -6 -6 -5 -6 -6 -6 -6 -6 -6 -6 -6 -6 -6 -6 -6 -6 -6 -6
-7 -7 -7 -7 -7 -7 -7 -7 -8 -7 -7 -8 -7 -7 -7 -7 -8 -7 -7 -8 -8 -8 -8 -8 -7 -7 -7 -7 -7 -7 -7 -7 -7 -7 -8 -8 -8 -8 -8 -8 -7 -7 -7 -7 -7 -7 -7 -6 -7 -7 -7 -7 -7 -7 -7 -7 -6 -6 -6 -6 -6 -6 -6 -6 -6 -6 -6 -6 -6 -5 -5 -6 -6 -6
-7 -7 -7 -7 -7 -7 -7 -8 -8 -8 -8 -8 -8 -7 -7 -7 -7 -8 -8 -8 -8 -8 -8 -8 -8 -8 -8 -8 -8 -8 -8 -8 -8 -8 -8 -8 -8 -8 -8 -8 -7 -7 -7 -7 -7 -7 -7 -7 -7 -7 -7 -7 -7 -7 -7 -7 -7 -6 -6 -6 -6 -6 -6 -6 -6 -6 -6 -6 -6 -6 -6 -6 -6 -5
-7 -7 -7 -7 -7 -7 -7 -8 -8 -8 -8 -8 -8 -8 -8 -8 -8 -8 -8 -8 -8 -8 -8 -9 -9 -9 -9 -9 -9 -8 -8 -8 -8 -8 -8 -8 -8 -8 -7 -7 -7 -7 -7 -7 -7 -7 -7 -7 -7 -7 -7 -7 -7 -7 -7 -7 -7 -7 -7 -7 -6 -6 -6 -6 -6 -6 -6 -6 -6 -6 -6 -6 -6 -6
-7 -7 -7 -7 -7 -7 -7 -8 -8 -9 -8 -8 -8 -8 -8 -8 -8 -8 -8 -8 -9 -9 -9 -9 -9 -9 -9 -9 -9 -8 -8 -8 -8 -8 -8 -8 -8 -8 -7 -7 -7 -7 -7 -7 -7 -7 -7 -7 -7 -7 -7 -7 -7 -7 -7 -7 -7 -7 -7 -7 -7 -7 -6 -6 -6 -6 -6 -6 -6 -6 -6 -6 -6 -6
-7 -7 -7 -7 -7 -7 -7 -8 -8 -9 -8 -8 -8 -8 -8 -8 -9 -9 -9 -9 -9 -9 -9 -9 -9 -9 -9 -9 -9 -8 -8 -8 -9 -8 -8 -8 -8 -8 -8 -8 -7 -7 -7 -7 -7 -7 -7 -7 -7 -7 -7 -7 -7 -7 -7 -7 -7 -7 -7 -7 -7 -7 -7 -7 -6 -6 -7 -7 -7 -7 -6 -6 -6 -6
-8 -8 -7 -8 -8 -8 -8 -8 -8 -8 -8 -8 -8 -8 -9 -9 -9 -9 -9 -9 -9 -9 -9 -9 -9 -9 -9 -9 -9 -9 -9 -9 -9 -9 -9 -8 -9 -9 -8 -8 -8 -8 -8 -8 -7 -7 -7 -7 -7 -7 -7 -7 -7 -7 -7 -7 -7 -7 -7 -7 -7 -7 -7 -7 -7 -7 -6 -7 -7 -7 -7 -7 -7 -7
-8 -8 -8 -8 -8 -8 -8 -8 -8 -8 -8 -9 -9 -9 -9 -9 -9 -9 -9 -9 -9 -9 -9 -9 -9 -9 -9 -9 -9 -9 -9 -9 -9 -9 -9 -9 -9 -9 -9 -9 -9 -8 -8 -8 -8 -8 -8 -8 -7 -7 -7 -7 -7 -7 -7 -7 -7 -7 -7 -7 -7 -7 -7 -7 -7 -7 -7 -7 -7 -7 -7 -7 -7 -7
-8 -8 -8 -8 -8 -8 -8 -9 -9 -9 -9 -9 -9 -9 -9 -10 -10 -10 -10 -10 -10 -10 -10 -10 -10 -10 -9 -9 -9 -9 -9 -9 -9 -9 -9 -9 -9 -9 -9 -9 -9 -9 -9 -8 -8 -8 -8 -8 -8 -8 -8 -8 -8 -8 -8 -8 -8 -7 -7 -7 -7 -7 -7 -7 -7 -7 -7 -7 -7 -7 -7 -7 -7 -7
-9 -9 -9 -8 -8 -8 -9 -9 -9 -9 -9 -9 -10 -10 -10 -10 -10 -10 -10 -10 -10 -10 -10 -10 -10 -10 -10 -9 -9 -9 -9 -9 -9 -9 -9 -9 -9 -9 -9 -9 -9 -9 -9 -9 -9 -9 -9 -9 -8 -8 -8 -8 -8 -8 -8 -8 -8 -8 -8 -8 -8 -8 -8 -8 -8 -8 -8 -8 -8 -8 -8 -8 -8 -8
-9 -9 -9 -9 -9 -9 -9 -9 -10 -10 -10 -10 -10 -10 -10 -10 -10 -10 -10 -10 -10 -10 -10 -10 -10 -10 -10 -10 -10 -10 -10 -10 -10 -10 -9 -9 -9 -9 -9 -9 -9 -9 -9 -9 -9 -9 -9 -9 -9 -9 -9 -9 -9 -8 -8 -8 -8 -8 -8 -8 -8 -8 -8 -8 -8 -8 -8 -8 -8 -8 -8 -8 -8 -8
-9 -9 -9 -9 -10 -10 -10 -10 -10 -10 -10 -10 -10 -10 -10 -10 -10 -10 -10 -10 -10 -10 -10 -10 -10 -10 -10 -10 -10 -10 -10 -10 -10 -10 -10 -10 -10 -10 -10 -10 -10 -10 -10 -9 -9 -9 -9 -9 -9 -9 -9 -9 -9 -9 -9 -9 -9 -9 -8 -8 -8 -8 -8 -8 -8 -8 -8 -8 -8 -8 -8 -8 -8 -8
-10 -10 -10 -10 -10 -10 -10 -10 -10 -10 -10 -10 -10 -10 -10 -10 -10 -10 -10 -10 -10 -10 -10 -10 -10 -10 -10 -10 -10 -10 -10 -10 -10 -10 -10 -10 -10 -10 -10 -10 -10 -10 -10 -10 -10 -9 -9 -9 -9 -9 -9 -9 -9 -10 -10 -10 -10 -10 -9 -9 -9 -9 -9 -9 -9 -9 -9 -9 -9 -8 -8 -8 -8 -9
-10 -10 -10 -10 -10 -11 -11 -11 -11 -11 -11 -11 -10 -10 -10 -10 -10 -10 -10 -10 -10 -10 -10 -10 -10 -10 -10 -10 -10 -10 -10 -10 -10 -10 -10 -10 -10 -10 -10 -10 -10 -10 -10 -10 -10 -10 -9 -9 -9 -9 -9 -9 -9 -9 -10 -10 -10 -11 -10 -10 -10 -10 -9 -9 -9 -9 -9 -9 -9 -9 -9 -9 -9 -9
-11 -11 -11 -11 -11 -11 -11 -11 -11 -11 -11 -11 -11 -11 -11 -11 -11 -11 -11 -11 -11 -11 -11 -11 -11 -11 -10 -10 -10 -10 -10 -10 -10 -10 -10 -10 -10 -10 -10 -10 -10 -10 -10 -10 -10 -10 -10 -10 -10 -9 -9 -9 -9 -9 -9 -9 -10 -10 -11 -11 -10 -10 -10 -10 -9 -9 -9 -9 -9 -10 -10 -10 -10 -9
-11 -11 -11 -11 -11 -11 -11 -11 -11 -11 -11 -11 -11 -11 -11 -11 -11 -11 -11 -11 -11 -11 -11 -11 -11 -11 -11 -11 -11 -11 -11 -11 -10 -10 -10 -10 -10 -10 -10 -10 -10 -10 -10 -10 -10 -10 -10 -10 -10 -10 -10 -10 -10 -9 -9 -9 -9 -10 -10 -10 -10 -10 -10 -10 -10 -9 -9 -9 -9 -9 -10 -10 -10 -10
-12 -12 -12 -12 -12 -12 -12 -12 -12 -12 -12 -12 -12 -11 -11 -11 -11 -11 -11 -11 -11 -11 -11 -11 -11 -11 -11 -11 -11 -11 -11 -11 -11 -11 -11 -11 -11 -11 -11 -11 -11 -11 -11 -11 -11 -11 -11 -11 -10 -10 -10 -10 -10 -10 -10 -10 -10 -10 -10 -10 -10 -10 -10 -10 -10 -10 -10 -9 -9 -9 -9 -9 -9 -10
-12 -12 -12 -12 -12 -12 -12 -12 -12 -12 -12 -12 -12 -12 -12 -12 -12 -12 -12 -11 -11 -12 -12 -12 -12 -12 -12 -12 -12 -12 -12 -11 -11 -11 -11 -11 -11 -11 -11 -11 -11 -11 -11 -11 -11 -11 -11 -11 -11 -11 -11 -11 -10 -10 -10 -10 -10 -10 -10 -10 -10 -10 -10 -10 -11 -11 -10 -10 -10 -10 -10 -10 -9 -9
-13 -13 -12 -12 -12 -12 -12 -12 -12 -12 -12 -12 -12 -12 -12 -12 -12 -12 -12 -12 -12 -12 -12 -12 -12 -12 -12 -12 -12 -12 -12 -12 -12 -12 -12 -12 -12 -12 -12 -12 -12 -12 -12 -11 -11 -11 -11 -11 -11 -11 -11 -11 -11 -11 -11 -11 -11 -11 -11 -11 -11 -11 -11 -11 -11 -11 -11 -11 -11 -11 -10 -10 -10 -10
-13 -13 -13 -13 -13 -13 -13 -12 -12 -12 -12 -12 -12 -12 -12 -12 -12 -12 -12 -12 -12 -12 -12 -12 -12 -12 -12 -12 -12 -12 -12 -12 -12 -12 -12 -12 -12 -12 -12 -12 -12 -12 -12 -12 -12 -12 -12 -12 -12 -12 -12 -12 -12 -12 -12 -11 -11 -11 -11 -11 -11 -11 -11 -12 -12 -12 -12 -12 -12 -12 -12 -12 -11 -11
-13 -13 -13 -13 -13 -13 -13 -13 -13 -13 -13 -13 -13 -12 -12 -12 -12 -12 -12 -13 -13 -13 -13 -13 -13 -13 -13 -13 -13 -13 -13 -13 -13 -13 -13 -12 -12 -12 -12 -12 -12 -12 -12 -12 -12 -12 -12 -12 -12 -12 -12 -12 -12 -12 -12 -12 -12 -12 -12 -12 -12 -12 -12 -12 -12 -12 -12 -12 -12 -12 -12 -12 -12 -12
Height
5960 5960 5959 5959 5959 5959 5959 5959 5959 5959 5958 5958 5957 5957 5956 5956 5955 5954 5954 5953 5953 5952 5951 5951 5950 5949 5948 5948 5948 5947 5947 5946 5945 5945 5944 5943 5942 5941 5940 5939 5939 5938 5937 5936 5935 5934 5933 5933 5932 5931 5930 5928 5927 5925 5923 5922 5920 5918 5917 5915 5913 5911 5909 5908 5906 5905 5903 5901 5900 5898 5897 5896 5895 5894
5959 5959 5959 5959 5959 5959 5959 5959 5958 5958 5958 5958 5957 5957 5956 5955 5954 5954 5953 5953 5953 5952 5951 5950 5949 5949 5948 5948 5948 5947 5946 5946 5945 5944 5943 5942 5941 5940 5940 5939 5938 5938 5937 5936 5935 5934 5933 5932 5931 5931 5929 5928 5927 5925 5924 5922 5921 5919 5918 5916 5914 5912 5910 5909 5908 5906 5905 5903 5902 5900 5899 5898 5897 5896
5959 5958 5958 5958 5958 5958 5958 5958 5957 5957 5957 5957 5957 5956 5956 5955 5954 5954 5953 5953 5952 5952 5951 5950 5949 5949 5948 5948 5947 5946 5946 5945 5944 5943 5943 5942 5941 5940 5939 5939 5938 5937 5937 5936 5935 5934 5933 5932 5931 5930 5929 5928 5927 5925 5924 5923 5921 5920 5918 5917 5915 5913 5912 5910 5909 5908 5906 5905 5904 5902 5901 5900 5899 5898
5957 5958 5958 5957 5957 5957 5957 5957 5957 5957 5956 5956 5956 5955 5955 5954 5954 5953 5953 5952 5952 5952 5951 5950 5949 5948 5948 5947 5947 5946 5946 5945 5944 5943 5942 5942 5941 5940 5939 5938 5937 5936 5936 5935 5934 5933 5932 5931 5930 5929 5929 5928 5927 5926 5924 5923 5921 5920 5919 5917 5916 5914 5913 5911 5910 5909 5908 5906 5905 5904 5903 5902 5901 5900
5956 5956 5957 5957 5957 5957 5957 5956 5956 5956 5956 5955 5954 5954 5954 5954 5954 5953 5953 5952 5952 5951 5950 5950 5949 5948 5948 5947 5947 5946 5945 5945 5944 5943 5942 5942 5941 5940 5939 5938 5937 5936 5936 5935 5934 5933 5932 5931 5930 5929 5928 5927 5927 5925 5924 5923 5921 5920 5919 5918 5917 5915 5914 5912 5911 5909 5908 5907 5907 5905 5904 5903 5902 5901
5955 5955 5956 5956 5956 5956 5956 5956 5956 5956 5955 5955 5954 5954 5954 5954 5953 5953 5952 5951 5951 5950 5950 5949 5949 5948 5948 5947 5946 5946 5945 5944 5943 5942 5942 5941 5940 5940 5939 5938 5937 5936 5936 5935 5933 5932 5931 5930 5929 5928 5928 5927 5926 5925 5924 5923 5922 5920 5919 5918 5917 5916 5914 5913 5912 5910 5909 5908 5907 5906 5905 5904 5903 5902
5955 5955 5955 5955 5955 5955 5955 5955 5955 5955 5954 5954 5954 5953 5953 5953 5953 5952 5951 5950 5950 5949 5949 5948 5948 5947 5947 5946 5946 5945 5944 5943 5942 5942 5941 5941 5940 5940 5939 5938 5937 5937 5936 5934 5933 5932 5931 5929 5928 5927 5927 5926 5925 5924 5923 5922 5921 5921 5919 5918 5917 5916 5915 5913 5912 5911 5909 5908 5908 5907 5906 5905 5904 5903
5955 5955 5955 5955 5955 5954 5953 5953 5953 5953 5953 5953 5952 5952 5952 5952 5951 5951 5950 5949 5949 5948 5948 5947 5947 5947 5946 5946 5945 5944 5943 5942 5942 5941 5940 5940 5940 5939 5939 5938 5937 5936 5936 5934 5933 5932 5930 5929 5928 5927 5926 5925 5925 5923 5923 5922 5921 5920 5919 5918 5917 5916 5915 5914 5912 5911 5910 5909 5908 5907 5906 5905 5905 5904
5954 5954 5954 5953 5953 5952 5951 5951 5950 5950 5950 5950 5950 5950 5950 5950 5949 5949 5948 5948 5948 5947 5947 5947 5947 5946 5946 5945 5944 5943 5943 5942 5941 5940 5940 5939 5939 5939 5938 5938 5937 5936 5935 5934 5932 5931 5930 5929 5928 5927 5926 5925 5924 5923 5922 5921 5921 5920 5919 5918 5917 5915 5915 5914 5913 5911 5910 5909 5908 5907 5906 5905 5905 5904
5951 5951 5951 5951 5951 5950 5950 5949 5949 5948 5948 5949 5949 5949 5948 5948 5947 5947 5947 5947 5947 5946 5946 5946 5946 5945 5945 5944 5943 5943 5942 5941 5940 5940 5939 5938 5938 5938 5937 5936 5936 5935 5935 5933 5932 5931 5930 5929 5927 5927 5926 5925 5924 5923 5922 5921 5920 5919 5918 5917 5916 5915 5914 5913 5913 5911 5910 5909 5908 5907 5906 5905 5905 5904
5949 5949 5949 5949 5949 5949 5948 5948 5948 5948 5948 5948 5948 5948 5947 5946 5946 5946 5946 5945 5945 5945 5945 5945 5944 5944 5944 5943 5942 5942 5942 5941 5939 5938 5938 5937 5937 5936 5936 5936 5934 5933 5933 5932 5931 5930 5929 5928 5927 5926 5925 5924 5923 5922 5921 5921 5920 5919 5918 5917 5916 5915 5914 5913 5912 5911 5910 5909 5908 5907 5906 5905 5904 5904
5947 5947 5947 5947 5947 5947 5947 5946 5947 5948 5947 5947 5946 5946 5946 5945 5945 5944 5944 5944 5944 5944 5943 5943 5943 5943 5942 5942 5941 5941 5940 5940 5939 5938 5937 5936 5935 5934 5934 5935 5933 5931 5931 5931 5930 5929 5928 5927 5926 5926 5924 5923 5923 5922 5921 5920 5919 5918 5917 5916 5915 5915 5914 5913 5912 5911 5910 5909 5908 5907 5906 5905 5904 5903
5945 5944 5944 5944 5945 5945 5945 5945 5945 5946 5946 5945 5945 5944 5944 5944 5943 5943 5943 5942 5942 5941 5941 5941 5941 5941 5940 5940 5940 5939 5939 5938 5938 5937 5936 5935 5934 5932 5932 5933 5932 5930 5929 5929 5928 5927 5926 5926 5925 5924 5923 5922 5921 5921 5920 5919 5918 5917 5916 5915 5914 5914 5913 5913 5912 5911 5910 5909 5908 5907 5906 5904 5903 5902
5942 5942 5942 5942 5942 5943 5943 5943 5943 5943 5944 5943 5943 5943 5942 5942 5941 5941 5941 5940 5940 5939 5939 5939 5939 5939 5938 5938 5938 5937 5937 5937 5936 5936 5935 5934 5933 5931 5930 5931 5932 5929 5927 5927 5927 5926 5925 5924 5923 5923 5922 5921 5920 5920 5919 5918 5917 5917 5916 5914 5913 5913 5912 5911 5911 5910 5909 5908 5907 5906 5905 5904 5903 5902
5939 5939 5940 5940 5940 5940 5941 5941 5940 5940 5941 5941 5941 5941 5940 5940 5939 5939 5939 5938 5938 5937 5937 5937 5937 5937 5936 5936 5936 5935 5935 5935 5934 5934 5933 5932 5931 5930 5929 5929 5929 5928 5926 5925 5925 5924 5923 5922 5922 5921 5920 5919 5919 5918 5917 5917 5916 5915 5915 5914 5913 5912 5911 5910 5909 5909 5908 5907 5906 5905 5904 5903 5902 5901
5937 5937 5937 5937 5937 5937 5938 5938 5938 5937 5938 5938 5938 5938 5938 5938 5938 5937 5937 5937 5936 5935 5935 5935 5935 5934 5934 5934 5934 5933 5933 5932 5932 5932 5932 5931 5930 5929 5928 5927 5927 5926 5924 5923 5923 5922 5921 5921 5920 5919 5918 5918 5917 5917 5916 5915 5914 5914 5913 5913 5912 5911 5910 5909 5908 5907 5906 5905 5904 5904 5903 5902 5901 5900
5934 5934 5934 5934 5934 5934 5935 5935 5935 5935 5935 5935 5936 5936 5935 5935 5935 5935 5935 5935 5934 5933 5933 5932 5932 5932 5932 5931 5931 5931 5931 5930 5930 5929 5929 5929 5928 5927 5927 5926 5925 5924 5923 5922 5921 5921 5920 5919 5919 5918 5917 5917 5916 5915 5914 5913 5912 5911 5911 5911 5910 5910 5909 5908 5907 5906 5905 5904 5903 5902 5901 5900 5900 5899
5931 5931 5930 5931 5931 5931 5931 5931 5932 5932 5932 5933 5933 5933 5932 5932 5932 5933 5932 5932 5932 5931 5931 5930 5930 5930 5930 5929 5929 5929 5929 5928 5928 5926 5926 5926 5926 5925 5924 5924 5923 5922 5921 5920 5919 5919 5918 5917 5917 5916 5916 5915 5914 5914 5913 5912 5911 5910 5909 5909 5908 5908 5908 5907 5906 5905 5904 5903 5901 5900 5899 5898 5898 5897
5927 5927 5927 5927 5927 5927 5927 5928 5928 5928 5929 5929 5930 5929 5929 5929 5930 5930 5930 5929 5929 5929 5928 5928 5927 5927 5927 5927 5926 5926 5926 5926 5925 5924 5924 5923 5923 5922 5922 5921 5920 5920 5919 5918 5917 5917 5915 5914 5914 5913 5913 5913 5912 5912 5911 5910 5909 5908 5907 5907 5906 5906 5905 5904 5904 5903 5902 5901 5899 5898 5897 5896 5895 5895
5923 5923 5923 5923 5923 5924 5924 5925 5925 5925 5925 5926 5926 5926 5926 5926 5926 5927 5926 5926 5926 5926 5926 5925 5925 5925 5924 5924 5924 5924 5924 5923 5922 5921 5921 5921 5921 5920 5919 5918 5918 5917 5917 5916 5915 5914 5913 5912 5911 5910 5910 5910 5910 5909 5909 5908 5907 5906 5906 5905 5904 5904 5903 5902 5901 5900 5900 5899 5898 5897 5895 5894 5893 5892
5920 5919 5919 5919 5920 5920 5921 5921 5921 5921 5922 5922 5922 5922 5922 5923 5923 5923 5923 5923 5923 5923 5923 5923 5922 5922 5922 5921 5922 5921 5920 5919 5919 5918 5918 5918 5918 5917 5917 5916 5915 5915 5914 5913 5912 5912 5911 5910 5909 5907 5907 5906 5906 5906 5906 5905 5904 5904 5903 5903 5902 5901 5900 5900 5899 5898 5898 5897 5896 5895 5893 5892 5891 5890
5916 5916 5915 5915 5915 5916 5916 5917 5917 5917 5918 5918 5918 5918 5918 5919 5919 5920 5920 5919 5919 5919 5920 5919 5919 5919 5918 5918 5919 5918 5917 5916 5916 5916 5915 5915 5914 5914 5914 5913 5912 5912 5912 5911 5910 5909 5909 5908 5907 5905 5904 5903 5903 5903 5902 5901 5901 5900 5900 5900 5899 5898 5897 5897 5896 5896 5895 5895 5894 5892 5891 5890 5888 5887
5912 5912 5911 5910 5910 5910 5911 5911 5912 5913 5913 5914 5914 5915 5915 5915 5916 5916 5916 5916 5916 5916 5916 5916 5916 5915 5915 5915 5915 5914 5913 5913 5913 5913 5912 5912 5911 5911 5911 5910 5910 5909 5909 5909 5908 5907 5907 5906 5905 5903 5902 5900 5899 5899 5899 5898 5897 5896 5896 5896 5896 5895 5895 5894 5894 5893 5893 5892 5891 5890 5888 5887 5886 5884
5907 5907 5907 5906 5905 5905 5905 5906 5907 5908 5909 5910 5910 5911 5912 5912 5912 5912 5913 5913 5913 5912 5912 5912 5912 5912 5912 5911 5911 5910 5910 5909 5910 5909 5909 5908 5908 5907 5907 5907 5907 5906 5906 5906 5906 5905 5905 5904 5903 5902 5901 5899 5897 5895 5894 5894 5893 5893 5892 5892 5892 5892 5892 5892 5891 5890 5889 5888 5887 5887 5886 5885 5883 5882
5902 5902 5902 5902 5901 5900 5900 5901 5902 5903 5905 5906 5907 5907 5908 5908 5908 5908 5909 5909 5909 5908 5908 5908 5908 5908 5908 5908 5907 5907 5906 5906 5906 5906 5905 5905 5905 5904 5904 5904 5903 5903 5903 5904 5904 5903 5902 5902 5901 5900 5899 5898 5896 5894 5892 5890 5889 5889 5889 5889 5888 5888 5888 5887 5887 5886 5885 5884 5883 5883 5882 5882 5881 5879
5897 5897 5897 5897 5896 5896 5896 5897 5898 5900 5901 5902 5903 5904 5904 5904 5904 5905 5905 5905 5905 5904 5904 5904 5904 5904 5904 5904 5903 5903 5903 5902 5902 5902 5902 5902 5901 5901 5901 5901 5900 5900 5900 5900 5901 5900 5899 5899 5898 5898 5896 5895 5894 5893 5891 5889 5886 5886 5886 5886 5885 5884 5883 5883 5882 5881 5880 5880 5880 5879 5878 5877 5876 5876
5892 5891 5891 5891 5892 5892 5892 5893 5894 5896 5896 5897 5899 5900 5900 5900 5900 5901 5901 5901 5901 5901 5901 5900 5900 5901 5901 5900 5900 5900 5899 5899 5899 5899 5899 5898 5898 5898 5898 5897 5897 5897 5896 5896 5896 5896 5896 5895 5894 5894 5893 5893 5892 5891 5889 5887 5885 5884 5884 5883 5881 5881 5880 5879 5878 5877 5876 5876 5875 5875 5874 5873 5872 5871
5887 5886 5886 5886 5887 5888 5888 5889 5890 5891 5892 5894 5895 5896 5896 5896 5896 5897 5897 5897 5897 5898 5897 5897 5897 5897 5897 5896 5896 5896 5896 5896 5896 5895 5895 5895 5894 5894 5893 5893 5893 5893 5892 5892 5892 5892 5891 5891 5890 5889 5889 5889 5889 5887 5885 5883 5882 5882 5882 5879 5877 5877 5877 5876 5875 5874 5872 5871 5870 5870 5869 5868 5867 5866
5882 5882 5881 5882 5883 5884 5885 5886 5887 5888 5889 5890 5891 5891 5892 5892 5892 5893 5893 5893 5894 5894 5893 5893 5893 5893 5892 5892 5892 5892 5892 5892 5892 5891 5891 5890 5890 5889 5888 5888 5889 5889 5888 5887 5887 5886 5886 5886 5885 5885 5885 5885 5884 5883 5881 5880 5879 5878 5878 5876 5874 5872 5872 5872 5871 5870 5869 5867 5866 5865 5864 5863 5862 5861
5878 5878 5877 5878 5879 5880 5881 5882 5883 5884 5885 5886 5886 5887 5887 5888 5888 5888 5888 5889 5889 5889 5889 5889 5889 5888 5888 5888 5888 5888 5888 5887 5887 5887 5887 5886 5885 5884 5883 5883 5884 5883 5882 5882 5881 5881 5880 5879 5880 5880 5880 5879 5878 5877 5876 5876 5875 5873 5873 5872 5870 5869 5867 5867 5866 5865 5865 5863 5862 5860 5859 5857 5856 5855
5874 5874 5874 5874 5875 5876 5877 5878 5879 5880 5881 5882 5882 5883 5883 5883 5883 5883 5884 5884 5884 5884 5885 5885 5884 5884 5883 5883 5883 5883 5883 5883 5882 5882 5882 5882 5881 5879 5878 5878 5877 5877 5876 5875 5875 5874 5874 5874 5874 5875 5874 5873 5871 5870 5870 5869 5869 5868 5867 5866 5865 5864 5863 5862 5861 5860 5860 5859 5858 5856 5854 5852 5850 5849
5871 5871 5871 5872 5872 5873 5874 5874 5875 5876 5877 5878 5878 5879 5879 5879 5879 5880 5880 5880 5880 5880 5880 5880 5880 5879 5878 5878 5878 5878 5878 5878 5878 5877 5877 5877 5876 5874 5872 5872 5871 5870 5869 5868 5868 5868 5868 5868 5868 5868 5868 5867 5865 5864 5863 5862 5862 5862 5860 5859 5859 5858 5857 5856 5856 5854 5854 5853 5852 5851 5849 5847 5845 5843
5868 5868 5869 5869 5870 5870 5870 5871 5871 5872 5873 5874 5874 5874 5875 5875 5875 5875 5875 5876 5876 5876 5875 5875 5874 5874 5874 5873 5873 5873 5873 5873 5872 5872 5871 5870 5869 5868 5867 5866 5865 5864 5864 5863 5862 5861 5861 5860 5860 5860 5859 5859 5858 5857 5857 5856 5855 5854 5853 5852 5851 5850 5849 5848 5848 5847 5846 5845 5845 5844 5842 5841 5839 5837
5865 5865 5865 5866 5867 5866 5866 5866 5866 5867 5868 5869 5869 5869 5870 5870 5870 5870 5870 5870 5870 5870 5870 5869 5868 5868 5868 5868 5868 5867 5866 5866 5866 5865 5865 5864 5863 5862 5861 5860 5859 5858 5858 5857 5857 5856 5855 5854 5854 5853 5852 5850 5849 5848 5848 5848 5847 5846 5845 5844 5844 5842 5841 5840 5839 5838 5837 5837 5836 5836 5835 5834 5832 5830
5862 5862 5862 5862 5862 5862 5861 5861 5861 5862 5863 5863 5864 5864 5864 5864 5864 5864 5864 5864 5864 5864 5863 5863 5863 5862 5862 5862 5861 5861 5860 5859 5859 5858 5858 5857 5857 5856 5855 5854 5853 5852 5851 5850 5850 5849 5849 5849 5848 5847 5845 5844 5843 5841 5839 5838 5838 5837 5836 5836 5834 5833 5833 5832 5830 5829 5829 5828 5827 5827 5828 5827 5825 5822
5856 5857 5857 5857 5857 5857 5857 5856 5856 5857 5857 5858 5858 5859 5859 5859 5859 5859 5858 5858 5857 5857 5857 5857 5856 5856 5855 5855 5854 5854 5853 5853 5852 5852 5851 5851 5850 5849 5848 5848 5847 5846 5845 5844 5843 5843 5842 5842 5841 5840 5839 5838 5837 5836 5833 5830 5828 5827 5827 5827 5825 5824 5823 5822 5821 5820 5819 5818 5817 5817 5817 5818 5817 5814
5849 5850 5850 5851 5851 5851 5851 5851 5851 5851 5851 5852 5852 5853 5853 5853 5853 5852 5852 5851 5850 5850 5849 5849 5849 5848 5848 5847 5847 5847 5847 5846 5846 5845 5845 5844 5843 5842 5841 5840 5840 5839 5838 5837 5836 5835 5835 5834 5832 5831 5831 5831 5830 5830 5828 5824 5821 5817 5816 5816 5816 5815 5813 5813 5812 5810 5809 5807 5806 5805 5805 5806 5806 5804
5843 5843 5844 5844 5844 5845 5845 5845 5845 5845 5845 5845 5845 5845 5845 5845 5845 5845 5845 5844 5843 5842 5842 5841 5841 5840 5840 5840 5840 5840 5839 5839 5839 5838 5837 5837 5836 5835 5834 5832 5832 5831 5830 5829 5828 5827 5826 5824 5823 5822 5821 5821 5821 5821 5820 5819 5815 5810 5807 5806 5806 5805 5803 5802 5801 5801 5799 5798 5796 5795 5794 5793 5793 5792
5836 5837 5837 5838 5838 5838 5838 5838 5838 5838 5838 5838 5838 5838 5838 5837 5837 5837 5836 5836 5835 5835 5834 5834 5834 5833 5833 5832 5832 5832 5831 5831 5830 5830 5829 5828 5827 5826 5825 5824 5823 5822 5821 5820 5819 5818 5816 5815 5814 5813 5812 5811 5810 5810 5810 5809 5808 5804 5800 5797 5795 5794 5793 5792 5791 5790 5789 5787 5786 5785 5784 5782 5781 5780
5829 5829 5830 5830 5830 5830 5830 5830 5830 5830 5830 5830 5830 5830 5830 5830 5829 5829 5828 5828 5827 5827 5827 5826 5826 5826 5825 5824 5824 5823 5823 5822 5822 5821 5820 5819 5818 5817 5816 5815 5814 5814 5812 5811 5810 5808 5807 5805 5804 5803 5802 5801 5800 5799 5798 5798 5798 5795 5792 5789 5786 5783 5782 5780 5779 5779 5778 5776 5776 5775 5774 5773 5772 5770
5821 5821 5821 5821 5821 5822 5822 5822 5822 5822 5822 5823 5823 5823 5823 5822 5822 5821 5821 5820 5820 5819 5819 5818 5817 5817 5816 5816 5815 5814 5814 5813 5813 5812 5811 5810 5810 5809 5808 5807 5806 5804 5803 5801 5800 5799 5797 5796 5794 5793 5791 5790 5789 5788 5788 5787 5787 5786 5783 5780 5777 5774 5771 5769 5767 5766 5766 5765 5764 5763 5762 5761 5760 5760
5813 5813 5813 5813 5813 5813 5813 5813 5814 5814 5814 5814 5814 5814 5814 5814 5813 5813 5813 5812 5812 5811 5810 5809 5808 5807 5806 5806 5805 5805 5804 5803 5802 5802 5801 5800 5800 5799 5798 5797 5795 5794 5792 5791 5790 5789 5788 5786 5784 5782 5781 5779 5778 5778 5777 5776 5776 5775 5774 5771 5769 5766 5763 5759 5756 5754 5753 5752 5751 5750 5749 5747 5746 5746
5804 5804 5804 5804 5804 5804 5804 5805 5805 5805 5806 5805 5805 5804 5804 5804 5804 5804 5804 5804 5803 5802 5801 5800 5799 5798 5797 5797 5796 5795 5795 5794 5793 5792 5791 5791 5790 5789 5788 5787 5785 5784 5782 5781 5780 5779 5778 5776 5775 5773 5771 5770 5768 5767 5766 5766 5765 5764 5763 5761 5760 5757 5754 5751 5747 5743 5741 5739 5737 5735 5734 5733 5731 5731
5794 5795 5795 5795 5795 5795 5795 5796 5796 5797 5797 5796 5796 5795 5795 5795 5795 5795 5795 5794 5794 5793 5792 5791 5790 5789 5789 5788 5787 5786 5786 5785 5784 5783 5782 5781 5780 5779 5778 5777 5776 5774 5772 5771 5770 5769 5768 5766 5765 5763 5762 5760 5758 5756 5755 5754 5753 5752 5751 5750 5748 5747 5745 5742 5739 5735 5731 5727 5724 5721 5720 5718 5716 5715
5784 5784 5785 5785 5785 5786 5786 5787 5787 5787 5787 5786 5786 5786 5786 5786 5786 5785 5785 5784 5783 5783 5782 5781 5781 5780 5780 5779 5778 5777 5776 5776 5775 5774 5773 5772 5770 5769 5768 5767 5766 5764 5762 5761 5760 5759 5758 5756 5754 5752 5751 5749 5747 5745 5743 5742 5741 5740 5739 5737 5736 5735 5733 5731 5728 5726 5722 5718 5714 5710 5707 5705 5702 5701
Wind_Speed
4 4 4 5 5 4 4 4 4 4 5 5 5 5 5 5 5 5 6 6 5 6 7 7 7 8 8 8 8 8 8 9 9 9 9 9 9 10 11 11 11 11 12 13 12 12 11 11 10 10 11 12 14 16 18 20 22 22 21 21 21 21 20 20 20 20 20 21 21 21 21 20 20 20
4 4 5 5 5 4 5 5 5 5 5 5 5 5 4 4 4 5 5 5 4 5 7 8 8 8 9 9 9 10 10 10 10 9 9 9 9 10 11 12 12 12 11 12 12 12 12 12 11 11 12 13 14 15 18 20 22 21 21 21 21 20 20 20 19 19 19 19 20 20 20 19 19 19
4 5 5 5 5 5 4 5 6 5 5 5 5 5 4 4 5 5 5 6 6 6 7 8 9 10 11 11 11 12 11 11 11 10 10 10 11 11 11 12 13 12 12 11 11 12 12 11 11 11 12 13 13 15 17 20 21 21 20 21 20 20 20 20 19 18 18 18 18 18 19 19 18 17
5 5 6 6 6 5 5 5 6 6 5 5 5 5 5 5 5 6 6 6 7 7 7 8 10 10 11 12 12 12 12 11 11 11 11 12 12 12 12 12 13 13 12 12 11 11 11 11 11 10 11 12 13 14 16 19 20 20 20 20 20 20 20 19 19 18 18 17 17 17 17 17 17 16
5 5 6 6 6 7 7 8 8 7 6 6 6 6 6 6 6 7 7 7 8 9 8 8 9 10 10 11 12 12 12 11 12 12 12 12 12 13 12 13 13 13 13 12 11 11 11 10 10 10 10 11 11 13 14 17 19 20 19 19 19 19 19 19 19 18 18 17 16 16 15 15 15 15
5 5 5 5 5 6 7 8 8 7 7 7 8 7 7 7 8 8 8 9 9 10 9 9 9 10 10 10 10 11 11 11 12 12 12 12 13 13 13 13 14 14 14 13 12 12 11 10 10 10 10 10 10 12 13 15 18 19 19 18 18 18 18 18 18 18 18 17 15 15 14 14 14 14
6 5 4 4 4 4 5 6 6 6 6 7 7 7 8 8 8 9 9 9 10 10 9 9 9 9 9 9 9 9 10 11 12 13 14 14 14 14 15 14 14 14 15 14 13 13 12 11 11 11 10 10 11 12 13 14 16 17 18 18 17 17 17 17 17 17 17 17 15 14 13 13 12 12
6 5 5 5 4 4 4 5 6 6 6 7 7 7 7 7 7 8 8 8 9 9 8 8 8 8 9 9 9 10 11 12 13 14 14 14 14 14 14 14 14 14 14 14 14 13 13 12 12 12 12 11 11 12 13 14 15 16 16 16 17 17 16 16 16 16 16 16 15 14 13 12 11 11
6 6 6 6 6 7 7 6 6 7 7 7 8 8 7 7 8 9 9 9 9 9 8 8 8 8 8 9 10 11 12 13 13 13 14 14 14 14 13 13 13 13 12 12 13 13 12 13 13 13 13 13 12 13 13 14 15 15 14 14 15 16 15 15 15 15 15 15 14 14 14 12 11 10
9 9 9 8 8 9 10 10 9 10 9 8 9 9 9 9 9 10 10 10 10 10 9 9 8 8 8 9 10 10 11 13 14 14 14 15 14 14 13 13 13 12 10 10 12 12 12 13 14 14 14 14 14 14 15 15 15 15 14 13 13 14 15 15 15 14 14 14 14 13 13 13 12 11
13 12 11 11 11 11 12 12 11 10 10 10 10 10 11 11 11 11 11 11 11 11 10 10 10 9 9 10 10 10 11 12 14 15 16 16 16 15 13 14 15 13 10 9 11 12 12 12 13 14 14 15 15 16 16 16 16 15 14 13 12 12 14 15 16 15 14 13 13 13 13 12 12 12
16 15 14 14 15 14 14 14 13 12 11 11 11 12 13 13 12 11 12 12 12 12 12 11 11 11 11 11 12 12 12 12 13 14 16 17 18 18 15 13 15 16 13 11 12 12 11 12 12 13 14 15 15 16 16 15 15 14 14 14 13 13 13 14 15 16 15 13 12 12 12 12 12 11
19 19 19 18 18 17 16 15 15 15 14 13 13 14 15 15 14 13 13 13 13 13 13 13 12 12 12 12 13 13 13 14 14 15 16 16 17 19 18 14 14 17 17 14 13 14 13 13 13 13 14 15 15 15 15 15 13 13 14 14 14 14 15 14 15 16 16 15 13 12 12 12 12 11
21 21 22 22 21 20 19 18 17 18 18 17 16 16 16 16 16 15 15 14 13 13 14 13 13 14 13 13 13 13 13 14 14 15 15 16 16 18 19 15 12 15 18 17 15 16 15 14 14 14 14 15 15 15 15 15 14 14 14 15 16 16 17 17 16 15 16 15 14 13 13 12 12 12
23 23 23 24 24 23 22 21 21 21 21 20 18 18 17 18 18 18 17 16 15 14 14 14 14 14 14 13 13 13 13 13 14 14 14 15 16 17 18 17 15 15 18 19 17 17 17 16 16 16 16 16 16 15 15 16 16 15 15 16 17 18 18 19 18 17 17 15 14 14 13 13 13 13
24 25 25 25 26 25 24 24 23 23 22 21 20 20 19 20 20 19 18 18 16 16 15 15 15 15 16 15 14 14 14 14 14 15 14 14 15 15 15 16 15 16 18 19 18 18 17 17 16 17 17 17 16 16 16 16 16 16 16 16 16 17 18 19 19 19 18 16 15 14 14 13 13 14
26 27 27 27 27 27 27 26 26 25 24 23 22 22 21 21 20 19 19 19 18 18 17 17 17 17 17 18 17 16 16 16 16 17 16 15 15 16 15 15 15 16 17 18 18 18 18 17 17 17 17 16 16 16 17 17 17 18 18 18 18 18 19 19 20 19 19 18 17 16 15 14 14 14
28 29 29 28 29 29 29 29 28 26 26 25 24 23 23 22 20 19 19 19 19 19 19 19 19 19 19 20 19 18 17 17 17 18 18 17 17 17 17 16 17 17 18 18 19 19 19 19 18 17 17 16 16 16 16 17 17 18 19 19 19 19 19 19 20 20 20 19 18 17 16 15 15 14
30 31 30 30 30 30 30 30 30 29 29 27 26 25 24 23 21 20 20 20 20 20 20 21 21 20 20 20 20 19 18 17 18 19 19 19 19 20 19 19 19 19 19 19 19 20 20 20 20 19 18 17 17 17 17 17 18 18 19 20 20 20 20 20 21 21 21 20 20 19 18 17 17 16
32 32 32 32 32 31 31 31 32 32 31 30 28 27 25 24 23 22 22 22 21 21 21 21 21 20 20 20 20 19 19 20 20 21 20 19 20 20 21 21 20 20 20 20 20 20 20 21 21 20 20 19 19 18 18 18 19 19 20 20 20 20 21 21 21 22 21 22 22 22 21 21 20 19
33 34 34 33 33 33 32 32 32 33 32 31 30 29 27 25 24 24 25 26 25 23 22 22 22 21 21 21 20 20 21 22 22 22 22 21 20 20 21 22 22 21 21 21 21 21 20 21 22 22 22 21 21 21 21 20 20 21 21 21 21 21 21 22 22 22 22 22 23 23 23 23 23 22
33 34 35 35 35 34 34 33 33 32 32 32 31 29 28 27 26 26 27 27 26 24 24 24 24 24 23 23 22 22 23 24 24 23 23 22 22 22 22 22 23 22 21 21 22 22 21 21 22 23 24 24 23 23 23 22 22 22 22 22 22 22 22 23 22 22 22 22 23 24 24 24 24 24
35 35 36 37 37 36 36 35 35 33 33 32 31 30 29 28 28 27 26 26 25 24 24 25 25 24 24 23 22 23 25 25 24 24 23 23 23 23 23 23 23 22 22 21 21 22 22 22 22 23 25 26 26 25 24 23 23 23 23 23 22 22 23 23 23 22 22 23 23 23 24 24 25 25
36 35 36 38 39 38 37 37 37 35 33 31 30 29 29 28 27 27 26 25 25 25 26 26 25 25 24 22 22 23 24 23 22 22 22 22 22 22 22 22 21 21 21 20 19 20 20 20 21 21 22 24 26 27 27 26 25 24 24 24 23 23 22 22 22 22 22 23 23 23 24 24 25 26
34 33 35 37 39 40 39 39 38 36 34 32 31 30 29 28 28 27 27 27 27 28 27 27 26 25 23 23 22 22 22 21 20 20 21 21 21 21 22 21 21 20 19 17 17 18 19 19 20 20 21 22 23 25 27 28 28 27 26 25 26 25 25 24 23 23 23 24 24 25 25 25 26 27
32 33 35 37 39 40 40 40 38 36 34 33 32 30 30 30 30 29 29 29 29 29 28 26 25 24 23 23 23 21 20 20 19 19 19 20 21 22 22 22 22 22 20 19 18 19 21 21 21 22 22 23 24 25 27 29 31 31 29 28 29 29 28 28 28 27 27 27 26 27 27 28 28 29
31 33 35 37 39 39 40 40 38 36 36 36 34 32 32 32 32 31 30 29 29 27 26 25 24 24 24 24 23 22 21 21 20 20 20 21 22 23 23 24 24 25 25 24 24 24 24 24 24 24 24 24 25 26 27 29 31 31 31 32 32 31 31 32 32 32 32 31 30 30 30 30 31 32
28 30 34 36 37 38 38 39 38 38 37 36 34 34 33 32 31 30 29 28 26 25 24 24 24 24 24 24 24 24 24 23 23 23 24 24 25 26 27 27 27 27 28 28 27 27 26 25 26 26 25 25 25 26 27 29 31 30 30 32 34 34 33 33 34 34 35 35 35 34 34 33 34 35
26 28 31 33 33 34 35 36 37 38 37 36 35 35 33 31 28 27 26 25 24 24 24 25 25 25 26 26 26 26 26 25 25 26 26 26 27 29 29 29 29 29 29 30 30 29 28 28 27 27 26 26 27 28 28 30 31 31 31 32 34 35 35 35 35 35 36 36 36 37 36 36 36 37
25 27 28 30 31 31 32 33 34 35 35 36 36 34 31 27 25 25 25 25 25 25 26 27 27 27 28 29 28 28 27 27 27 27 27 28 29 30 31 30 30 30 31 31 31 31 32 31 31 30 29 29 30 31 31 31 32 32 33 33 34 35 36 37 37 37 37 37 38 39 39 39 39 39
25 25 25 26 28 29 29 30 30 31 32 33 32 30 27 26 25 26 27 26 27 27 28 28 29 30 30 31 31 30 30 30 30 30 29 30 30 32 33 33 33 33 34 34 34 34 35 35 34 34 33 33 34 35 35 35 35 35 36 36 36 37 37 38 38 39 39 38 39 40 41 42 42 42
27 26 25 25 26 26 28 30 30 30 30 30 28 27 27 27 27 28 28 28 29 29 30 30 31 32 33 34 34 34 33 33 34 33 33 32 33 34 35 36 36 36 37 38 38 38 39 39 38 38 37 38 38 39 39 39 39 39 39 40 40 40 41 41 41 41 41 41 41 41 42 43 44 45
29 29 28 27 27 28 29 30 31 30 30 29 29 28 29 29 30 30 31 31 31 32 33 34 35 36 36 37 37 37 37 37 37 37 36 36 37 38 39 39 40 40 40 41 41 42 42 42 42 42 42 42 43 43 43 43 43 44 44 44 44 44 45 45 45 45 45 45 44 44 45 46 46 47
31 32 31 30 31 32 32 32 32 32 32 32 31 31 32 33 33 34 34 34 35 35 37 38 39 39 40 39 39 39 39 40 40 40 40 40 40 41 41 41 42 42 42 43 43 44 44 44 45 45 46 47 47 48 48 47 48 48 49 49 49 49 49 49 49 49 49 49 48 47 47 47 48 49
34 34 34 34 35 36 36 35 34 34 34 34 35 35 36 36 37 37 37 38 38 39 40 41 42 42 42 41 41 41 42 42 42 43 43 43 43 43 43 43 44 44 45 46 46 47 47 47 47 48 49 50 50 51 52 53 53 53 53 53 53 53 53 53 53 53 53 53 53 52 51 49 49 51
36 36 36 37 38 37 36 36 35 35 35 36 36 37 38 39 39 40 40 41 42 43 44 44 44 44 44 44 44 44 45 45 45 46 46 46 46 46 46 46 46 47 48 49 50 50 51 51 51 52 52 52 52 52 53 55 56 57 56 56 56 56 57 57 57 57 57 57 57 57 56 54 53 53
36 36 37 38 38 37 36 35 36 37 38 39 40 41 41 42 42 43 44 45 46 46 47 47 47 47 47 47 47 48 48 48 49 49 49 49 49 49 49 50 51 51 52 53 54 54 54 55 55 56 56 55 54 53 52 53 55 58 59 59 58 59 59 59 60 59 59 59 60 60 60 59 57 57
39 39 39 40 40 40 40 41 43 44 45 45 45 45 46 46 46 47 47 48 49 49 49 50 50 50 51 51 51 51 52 52 52 52 52 53 53 53 54 55 55 56 56 57 57 58 59 59 60 60 60 60 59 58 57 55 55 57 59 61 61 61 62 62 62 62 61 61 62 62 62 62 62 61
44 44 44 45 46 47 48 48 48 48 47 47 48 48 49 49 49 50 50 50 51 51 52 52 53 53 54 54 55 55 55 56 56 56 57 57 57 58 58 59 59 60 60 61 61 62 62 63 63 63 63 63 63 63 62 61 59 59 60 61 62 62 63 64 65 65 64 64 63 63 63 63 63 63
48 48 49 49 50 51 51 50 49 48 48 49 49 50 51 52 52 53 53 53 54 54 55 55 56 57 57 58 58 58 59 59 59 59 60 60 61 61 62 62 63 63 63 63 64 64 64 64 64 64 64 64 63 63 63 63 62 62 62 63 64 64 65 65 66 67 67 67 67 66 65 65 64 64
51 51 52 52 52 52 52 52 51 51 51 51 51 52 53 54 55 56 56 57 57 58 58 59 60 60 60 61 61 61 62 62 62 62 63 63 63 63 64 64 64 64 64 64 64 64 63 63 64 64 64 64 64 64 63 63 63 63 63 64 65 66 67 68 68 68 69 69 69 69 69 69 69 68
54 54 54 55 55 55 55 55 55 55 54 54 54 55 56 57 58 58 59 59 60 61 62 62 63 64 64 64 64 65 65 65 65 65 65 64 64 64 64 64 64 64 64 64 64 64 64 64 64 65 65 65 65 66 66 66 66 65 65 65 66 67 68 69 70 70 70 71 72 73 73 74 75 75
57 57 57 58 58 58 58 59 59 59 59 58 58 58 58 58 58 59 59 60 61 62 63 64 65 65 66 66 66 66 66 66 66 66 66 66 66 66 65 65 65 65 65 65 65 65 65 65 66 66 66 67 67 67 67 68 68 68 67 67 67 67 68 70 71 73 74 75 76 77 78 79 80 81
60 60 60 60 60 60 60 61 61 61 61 61 61 61 61 61 60 60 60 61 61 62 63 64 65 65 66 66 67 67 67 67 67 67 67 67 67 67 66 66 66 66 66 66 66 66 66 67 67 67 68 68 68 69 69 69 69 69 70 70 70 70 71 72 73 75 77 79 80 81 82 83 84 85
62 62 62 62 62 62 62 62 62 62 62 62 62 62 63 63 63 63 63 63 64 64 64 65 65 65 66 66 67 67 67 68 68 68 67 67 67 67 67 67 67 67 68 68 68 68 68 68 68 69 69 69 70 70 71 71 71 72 72 73 73 74 75 75 77 78 79 81 82 84 84 84 84 85
Wind_Direction
222 229 229 227 225 218 216 222 223 225 232 235 238 246 255 268 279 286 290 297 301 302 307 317 326 332 337 340 343 349 353 356 356 354 354 353 352 352 350 347 344 340 336 333 333 338 340 341 347 355 359 359 358 359 2 9 14 16 17 20 22 26 31 34 36 38 40 42 43 43 43 44 46 53
233 242 248 250 247 237 231 232 234 236 241 245 248 255 260 267 274 278 285 294 301 304 311 324 334 338 340 343 346 349 348 348 348 347 350 350 350 351 348 342 340 340 337 331 331 334 333 335 343 351 355 357 358 358 0 7 12 15 16 18 20 23 27 32 35 37 39 42 45 45 45 46 47 50
234 242 253 256 252 245 240 242 246 250 255 261 266 269 273 278 284 290 297 305 309 312 316 324 332 336 339 340 341 340 337 336 339 342 345 346 349 350 346 339 336 337 337 336 334 330 328 331 336 344 352 353 355 358 359 3 9 13 16 16 18 21 24 28 32 35 37 40 44 47 47 47 48 49
234 236 245 253 256 257 255 249 249 252 255 262 270 278 287 298 302 303 305 307 306 308 315 320 323 328 331 330 329 326 324 327 333 337 340 342 346 349 345 338 334 335 337 338 336 331 329 330 334 344 353 351 352 356 358 0 4 10 15 15 15 19 22 24 28 32 34 35 39 44 48 49 49 50
229 231 237 246 255 259 261 260 260 265 267 270 277 286 292 294 294 295 297 297 296 299 306 310 312 317 318 316 315 315 317 324 328 332 337 341 345 348 347 339 334 335 336 335 334 334 334 335 338 348 355 350 349 354 357 359 0 3 9 13 14 16 20 22 24 29 32 33 35 38 43 49 50 50
227 231 235 241 248 254 262 265 268 272 273 271 273 279 281 279 278 281 283 287 289 293 300 304 304 305 305 303 305 309 315 322 326 331 339 345 347 349 348 343 338 335 333 332 331 334 336 339 343 351 356 351 349 353 355 357 358 357 358 6 12 13 16 19 22 26 28 31 33 35 37 42 47 50
235 242 248 252 257 268 279 281 280 281 279 277 278 278 278 278 277 278 280 286 288 288 293 298 297 297 298 299 301 307 314 320 328 335 340 345 349 351 348 345 341 336 332 330 330 332 334 336 341 346 350 350 349 350 352 354 356 353 351 357 5 9 11 14 17 22 25 27 29 32 35 37 40 45
259 271 280 281 280 275 276 286 292 291 286 283 285 287 285 283 284 285 288 292 291 287 288 292 293 294 298 301 304 310 316 321 327 330 334 340 347 349 346 343 341 337 332 329 327 329 329 328 331 335 337 342 344 344 348 351 352 351 348 351 356 1 6 8 11 15 19 22 24 27 30 33 35 39
276 276 274 270 263 255 250 246 252 260 266 270 276 282 286 288 292 295 296 296 292 290 292 294 294 296 300 302 305 309 313 316 318 320 326 333 338 339 340 339 337 333 332 328 323 323 323 319 320 324 327 332 336 337 342 345 346 345 345 347 350 354 358 2 5 8 10 13 16 20 23 26 29 31
264 257 257 257 256 257 257 252 247 250 254 257 261 266 271 276 282 287 290 293 294 294 297 298 297 296 297 297 298 300 305 308 311 316 320 322 323 328 333 334 330 328 332 327 317 316 317 314 315 319 321 325 329 332 334 336 336 336 337 342 347 349 352 355 358 0 1 2 5 9 14 18 21 23
260 257 258 261 261 260 262 264 267 268 267 267 270 272 272 271 274 280 286 291 292 291 292 293 294 296 295 295 296 298 302 305 309 313 314 315 316 319 325 328 324 323 329 325 313 311 313 312 312 315 317 319 322 324 326 327 327 327 329 334 341 347 349 349 350 352 353 353 354 357 1 6 11 15
263 263 261 260 260 261 263 267 273 277 276 275 277 279 278 276 275 277 280 282 282 283 285 288 291 293 294 294 296 300 303 303 304 305 307 311 313 313 318 326 321 316 321 323 315 311 312 310 308 308 309 311 313 315 317 319 320 321 322 327 334 340 343 344 344 344 345 345 345 346 348 352 357 2
262 263 262 260 259 261 264 267 269 271 271 271 272 275 278 279 277 276 274 275 278 282 285 288 290 290 290 292 295 298 301 301 301 301 302 304 306 306 309 317 316 311 312 317 316 314 312 312 309 307 306 307 308 310 311 313 315 317 318 321 326 331 334 337 339 339 339 338 338 338 338 340 343 346
260 261 262 262 262 262 263 264 265 267 270 272 273 275 278 279 279 278 277 276 278 282 286 288 289 289 289 290 294 295 298 300 301 301 301 301 301 301 303 306 310 308 308 311 315 314 313 313 312 311 308 307 308 309 309 310 312 314 316 318 321 324 326 328 332 335 335 333 332 332 331 330 331 332
258 259 260 261 262 262 261 261 262 264 267 269 271 273 275 277 278 279 279 279 279 281 285 287 289 290 291 292 293 295 297 300 303 305 305 302 300 301 303 307 311 309 306 308 312 312 311 311 312 311 309 309 310 311 309 307 307 309 311 313 316 319 321 323 325 328 331 330 329 328 327 326 324 322
258 258 258 260 261 261 260 260 261 263 265 268 268 269 272 274 276 279 281 281 281 282 283 285 289 293 295 296 296 297 297 298 300 304 305 302 299 299 300 303 308 307 305 307 309 309 308 308 309 309 308 310 311 311 309 308 308 309 309 309 311 312 314 316 317 320 322 323 322 322 322 322 320 319
261 259 258 258 259 260 260 261 261 262 263 264 264 264 266 270 273 278 283 284 283 282 282 285 288 291 293 294 295 295 296 296 296 296 297 297 296 296 295 296 299 300 300 301 303 304 303 304 305 305 306 307 307 306 307 308 309 309 309 309 309 309 310 311 312 313 315 315 315 315 315 315 315 314
262 261 260 259 258 258 259 260 260 260 261 262 262 262 264 265 267 273 279 281 281 281 283 284 285 286 288 289 291 292 293 295 294 292 292 294 296 295 295 297 298 297 297 298 300 300 300 300 301 301 301 302 301 302 302 303 303 304 305 307 308 309 310 310 310 310 311 312 312 312 312 312 312 311
260 260 260 260 259 258 258 259 259 259 260 261 261 262 263 264 265 269 272 274 277 280 281 282 282 284 286 288 289 291 295 295 292 289 290 292 293 293 295 296 297 296 296 296 297 297 298 299 300 300 300 300 299 299 299 299 298 298 300 302 305 307 308 308 308 309 310 311 311 311 311 310 310 310
259 258 258 258 259 259 258 257 258 259 260 261 261 261 261 261 262 263 264 266 270 275 277 278 281 284 286 287 288 292 294 293 289 288 289 290 290 291 292 293 293 293 293 293 294 294 296 298 299 299 299 299 298 298 297 296 296 295 296 298 299 302 303 304 305 307 308 309 310 310 309 309 309 308
261 259 257 256 257 258 258 257 257 258 259 260 260 259 260 260 259 258 258 261 265 270 272 275 279 282 283 284 288 291 291 289 287 288 290 290 289 289 289 289 289 289 290 291 292 293 295 297 298 298 299 299 300 299 299 298 297 297 297 298 299 301 301 302 302 304 306 307 308 308 308 308 308 307
264 262 260 257 254 254 256 256 255 255 256 256 257 258 259 260 259 257 257 259 263 267 271 275 277 280 281 283 286 288 287 285 285 287 288 288 287 287 286 286 286 286 287 287 289 291 293 295 297 297 298 299 299 299 299 299 299 299 299 300 301 302 303 303 304 305 307 308 308 307 307 307 307 306
264 264 264 261 256 251 252 254 254 253 253 254 256 257 258 259 260 259 258 259 263 267 270 272 274 277 281 283 285 285 284 284 283 283 284 285 285 286 286 285 284 284 285 285 285 286 288 290 292 293 296 298 299 298 298 298 298 299 300 302 303 304 305 306 308 309 309 309 307 306 305 305 304 304
261 263 264 264 259 252 248 250 252 253 252 253 254 255 255 256 257 259 260 261 265 267 268 270 272 275 278 279 279 279 280 282 281 280 280 282 283 285 285 284 283 282 283 284 285 286 286 287 288 289 292 295 297 299 299 299 298 298 300 302 303 304 304 305 306 306 306 305 304 303 303 303 302 302
261 265 265 263 261 257 251 248 249 251 253 253 253 253 254 254 255 258 261 264 266 267 268 269 270 271 273 274 274 274 275 276 276 275 276 278 280 281 281 282 282 281 280 282 285 286 286 286 286 287 288 288 289 291 294 296 296 297 298 300 301 301 300 299 297 296 296 297 299 300 301 301 300 300
262 263 262 260 260 260 256 249 245 248 251 252 252 253 254 255 256 259 261 263 264 266 267 267 267 267 268 269 270 270 270 270 270 272 274 276 278 279 279 279 279 280 281 282 284 286 285 284 282 281 281 282 282 283 286 288 291 293 296 296 296 296 296 295 293 291 291 291 292 293 295 295 295 295
263 260 257 256 256 258 258 250 243 244 248 251 253 255 255 257 258 259 260 260 261 262 263 265 266 267 267 268 268 268 267 267 270 274 276 278 279 279 279 278 277 277 280 282 284 285 285 284 282 281 279 280 281 282 283 283 285 289 292 292 291 290 290 291 291 291 290 290 290 289 289 289 289 289
268 263 257 255 254 257 258 252 243 243 247 250 254 256 256 255 255 255 257 259 261 262 263 264 266 267 267 268 268 268 268 270 273 276 277 278 279 279 278 277 276 277 278 279 281 281 281 280 279 279 279 280 280 280 280 281 283 285 287 287 287 287 287 288 288 289 289 290 290 289 287 286 286 285
268 264 259 258 257 259 260 255 247 245 247 250 254 255 254 253 253 254 257 259 260 262 262 263 264 265 266 267 268 270 272 274 275 276 277 277 278 277 277 278 278 278 278 279 280 281 280 279 277 278 278 279 278 277 277 278 280 282 282 283 284 286 286 286 286 286 287 288 288 288 287 286 285 285
264 263 260 258 256 256 257 255 252 250 250 250 251 250 248 246 247 249 251 252 254 256 259 262 265 267 269 271 272 274 276 276 275 275 276 277 278 279 280 280 280 280 279 279 280 281 281 281 280 281 281 280 279 278 277 277 278 279 279 279 280 281 283 283 284 284 284 285 286 287 287 286 286 285
261 261 259 256 253 251 251 251 250 250 251 250 248 246 244 242 242 245 247 250 254 257 261 264 268 270 272 274 275 276 276 277 278 278 279 281 282 282 283 283 282 282 282 281 281 280 280 280 281 281 281 281 280 280 280 279 279 280 280 280 280 280 281 282 282 282 282 282 283 284 284 284 284 284
261 259 259 258 255 250 247 247 247 248 248 248 247 247 246 246 247 249 252 255 258 261 264 267 269 271 272 274 275 277 278 279 280 282 282 283 282 281 281 281 282 282 282 282 283 283 283 283 283 283 282 282 282 282 283 283 283 282 282 282 282 282 282 282 282 283 283 282 282 281 281 281 282 282
264 260 259 256 252 248 247 247 247 248 248 249 250 251 251 252 253 255 257 260 263 266 268 269 270 271 272 273 275 277 278 279 281 281 281 280 279 278 279 279 280 280 281 281 283 284 285 285 286 286 286 285 285 285 285 286 286 286 285 285 285 285 285 284 284 283 282 282 281 281 280 280 280 280
265 259 253 248 245 248 250 251 251 252 252 253 253 253 254 255 256 258 260 263 265 267 267 268 269 270 271 273 275 276 278 279 279 279 279 278 278 278 278 279 280 280 281 281 282 282 283 284 286 287 287 287 288 287 287 287 287 286 286 286 286 286 285 285 285 284 283 283 282 281 280 280 280 280
266 261 254 248 245 248 252 254 256 256 256 255 255 255 255 257 259 261 263 265 266 266 267 268 269 271 273 274 275 276 277 278 278 278 278 278 278 278 278 279 280 281 281 282 282 283 283 284 285 286 286 287 288 289 289 288 287 287 286 286 285 285 284 284 283 283 282 282 282 281 280 279 279 280
266 264 259 253 250 250 251 253 255 256 257 258 258 258 258 260 261 262 263 264 265 266 267 268 270 272 273 274 275 275 276 276 276 277 277 278 278 278 279 279 279 280 281 281 282 283 284 285 285 285 285 286 286 287 288 288 288 287 287 286 286 285 285 284 284 283 283 283 282 281 281 280 279 279
265 263 260 255 250 249 250 254 257 260 262 262 262 262 262 262 263 263 264 265 266 267 268 269 271 271 272 273 273 274 275 275 276 277 277 278 278 278 279 279 279 280 280 281 282 283 283 284 284 284 285 285 286 286 286 286 286 286 286 286 285 285 285 285 285 284 284 284 284 283 283 282 280 279
265 262 259 255 252 252 255 260 263 265 265 265 265 265 265 265 264 264 265 265 266 267 268 269 270 271 272 272 273 274 274 275 276 276 277 277 278 278 279 279 280 280 281 282 283 283 284 284 284 285 285 285 286 286 285 285 284 284 285 286 286 286 286 286 285 285 285 284 284 284 285 284 283 282
264 263 261 259 259 260 262 264 265 265 265 265 264 265 265 265 265 265 264 265 265 266 267 267 268 269 270 271 272 273 274 274 275 276 277 277 278 279 279 280 280 281 282 282 283 283 283 283 284 284 284 284 284 284 284 284 284 284 284 285 286 286 286 286 286 286 286 285 285 285 285 285 285 284
263 263 263 263 263 264 265 265 265 264 263 263 262 262 262 263 263 264 264 265 265 266 267 268 268 269 270 270 271 272 273 274 275 276 276 277 278 278 279 280 280 281 281 282 283 283 283 283 284 284 284 284 284 284 284 284 284 284 284 285 285 286 286 286 285 285 285 285 285 284 284 283 283 283
263 263 263 263 264 264 265 265 265 264 263 262 262 261 261 262 262 263 264 265 266 267 268 269 270 270 271 271 272 273 274 275 275 276 276 277 278 278 279 280 280 281 282 282 283 283 284 284 285 285 285 285 285 285 285 284 284 284 284 284 285 285 285 285 285 285 285 284 284 284 283 283 282 281
262 262 262 263 263 263 263 263 264 264 264 264 263 262 261 261 262 263 264 266 267 268 269 270 271 272 273 273 274 275 276 277 277 278 278 279 279 280 281 281 282 282 282 283 283 284 284 284 284 285 285 285 285 285 284 284 284 283 283 283 283 283 284 284 285 285 284 284 284 283 283 282 282 282
261 261 262 263 263 263 263 263 263 264 264 265 265 264 264 263 263 264 265 266 266 267 268 269 270 271 272 273 274 275 276 276 277 278 278 279 279 280 280 281 281 282 282 282 282 283 283 283 283 283 283 283 283 283 283 283 283 282 282 282 282 282 282 283 283 284 284 284 284 283 283 283 282 282
260 260 261 261 262 262 263 263 263 264 264 264 264 265 266 266 267 267 267 267 267 267 267 268 269 269 270 271 272 273 274 274 275 276 277 277 278 279 279 280 280 281 281 281 282 282 282 282 282 282 282 282 282 282 282 282 282 282 282 282 281 281 281 282 282 283 283 284 284 284 284 284 284 283
261 260 261 261 261 261 262 262 263 263 264 264 264 264 265 266 267 267 268 268 268 268 268 268 269 269 270 270 271 272 273 274 274 275 276 277 278 278 279 279 280 280 281 281 281 281 282 282 282 282 282 282 282 282 282 282 282 282 282 282 282 281 281 281 281 282 282 283 283 284 284 284 284 284